Station Historical Data
 
Daily Summary for September 19, 2017 Units:  English    Metric   Both
« Previous Day
Next Day »
Daily Weekly Monthly Yearly Custom
  Current: High: Low: Average:
Temperature: 69.0 °F 69.0 °F 66.6 °F 67.4 °F
Dew Point: 66.6 °F 66.8 °F 65.0 °F 65.7 °F
Humidity: 92% 95% 92% 94%
Wind Speed: 1.2mph 7.5mph 0.7mph 3.2mph
Wind Gust: 13.0mph 13.0mph - -
WindENE - - ESE
Pressure: 29.99 in 30.03 in 29.98 in -
Precipitation: 0.00 in      
Historical Graphs
 
 
Tabular Data for September 19, 2017
Time Temperature Dew Point Pressure Wind Wind Speed Wind Gust Humidity Rainfall Rate (Hourly) solar Conditions
00:01 66.6 °F 65.1 °F 30.03 in NNE 1.9 mph 13.0 mph 95% 0.00 in WeatherDisplay:10.37 W/m2 CLR
00:06 66.7 °F 65.2 °F 30.03 in NNE 3.3 mph 13.0 mph 95% 0.00 in WeatherDisplay:10.37 W/m2 CLR
00:11 66.7 °F 65.2 °F 30.03 in NNE 1.8 mph 13.0 mph 95% 0.00 in WeatherDisplay:10.37 W/m2 CLR
00:16 66.7 °F 65.2 °F 30.03 in NE 3.3 mph 13.0 mph 95% 0.00 in WeatherDisplay:10.37 W/m2 BKN
00:21 66.7 °F 65.2 °F 30.03 in North 2.1 mph 13.0 mph 95% 0.00 in WeatherDisplay:10.37 W/m2 BKN
00:26 66.8 °F 65.3 °F 30.03 in North 1.7 mph 13.0 mph 95% 0.00 in WeatherDisplay:10.37 W/m2 BKN
00:31 66.8 °F 65.3 °F 30.03 in NNE 2.1 mph 13.0 mph 95% 0.00 in WeatherDisplay:10.37 W/m2 BKN
00:36 66.8 °F 65.3 °F 30.03 in ENE 1.6 mph 13.0 mph 95% 0.00 in WeatherDisplay:10.37 W/m2 BKN
00:41 66.8 °F 65.3 °F 30.03 in NE 2.6 mph 13.0 mph 95% 0.00 in WeatherDisplay:10.37 W/m2 BKN
00:46 66.8 °F 65.3 °F 30.03 in North 4.4 mph 13.0 mph 95% 0.00 in WeatherDisplay:10.37 W/m2 BKN
00:51 66.8 °F 65.3 °F 30.03 in NNE 4.4 mph 13.0 mph 95% 0.00 in WeatherDisplay:10.37 W/m2 BKN
00:56 66.8 °F 65.3 °F 30.03 in NNE 3.2 mph 13.0 mph 95% 0.00 in WeatherDisplay:10.37 W/m2 BKN
01:01 66.8 °F 65.3 °F 30.03 in NNE 3.2 mph 13.0 mph 95% 0.00 in WeatherDisplay:10.37 W/m2 OVC
01:06 66.8 °F 65.3 °F 30.03 in NNE 1.8 mph 13.0 mph 95% 0.00 in WeatherDisplay:10.37 W/m2 OVC
01:11 66.8 °F 65.3 °F 30.02 in NE 3.2 mph 13.0 mph 95% 0.00 in WeatherDisplay:10.37 W/m2 OVC
01:16 66.8 °F 65.3 °F 30.02 in NNW 4.1 mph 13.0 mph 95% 0.00 in WeatherDisplay:10.37 W/m2 OVC
01:21 66.8 °F 65.3 °F 30.02 in NNE 4.6 mph 13.0 mph 95% 0.00 in WeatherDisplay:10.37 W/m2 OVC
01:26 66.8 °F 65.3 °F 30.02 in North 4.5 mph 13.0 mph 95% 0.00 in WeatherDisplay:10.37 W/m2 OVC
01:31 66.8 °F 65.3 °F 30.02 in NNW 3.1 mph 13.0 mph 95% 0.00 in WeatherDisplay:10.37 W/m2 OVC
01:36 66.8 °F 65.3 °F 30.02 in NE 3.6 mph 13.0 mph 95% 0.00 in WeatherDisplay:10.37 W/m2 OVC
01:41 66.8 °F 65.3 °F 30.02 in NNE 3.3 mph 13.0 mph 95% 0.00 in WeatherDisplay:10.37 W/m2 OVC
01:51 66.8 °F 65.3 °F 30.01 in NNE 2.9 mph 13.0 mph 95% 0.00 in WeatherDisplay:10.37 W/m2 OVC
01:56 66.8 °F 65.3 °F 30.01 in NE 3.7 mph 13.0 mph 95% 0.00 in WeatherDisplay:10.37 W/m2 OVC
02:01 66.8 °F 65.0 °F 30.01 in NNW 2.0 mph 13.0 mph 94% 0.00 in WeatherDisplay:10.37 W/m2 OVC
02:06 66.8 °F 65.3 °F 30.01 in NNE 2.6 mph 13.0 mph 95% 0.00 in WeatherDisplay:10.37 W/m2 OVC
02:11 66.8 °F 65.3 °F 30.01 in NE 3.2 mph 13.0 mph 95% 0.00 in WeatherDisplay:10.37 W/m2 OVC
02:16 66.8 °F 65.3 °F 30.01 in NE 2.2 mph 13.0 mph 95% 0.00 in WeatherDisplay:10.37 W/m2 OVC
02:21 66.8 °F 65.3 °F 30.01 in ENE 1.8 mph 13.0 mph 95% 0.00 in WeatherDisplay:10.37 W/m2 OVC
02:26 66.8 °F 65.3 °F 30.01 in ENE 0.9 mph 13.0 mph 95% 0.00 in WeatherDisplay:10.37 W/m2 OVC
02:31 66.9 °F 65.4 °F 30.01 in NNW 1.0 mph 13.0 mph 95% 0.00 in WeatherDisplay:10.37 W/m2 OVC
02:36 66.9 °F 65.4 °F 30.00 in NE 3.9 mph 13.0 mph 95% 0.00 in WeatherDisplay:10.37 W/m2 OVC
02:41 67.0 °F 65.5 °F 30.00 in North 1.1 mph 13.0 mph 95% 0.00 in WeatherDisplay:10.37 W/m2 OVC
02:46 67.0 °F 65.5 °F 30.00 in NE 4.1 mph 13.0 mph 95% 0.00 in WeatherDisplay:10.37 W/m2 OVC
02:51 66.9 °F 65.1 °F 30.00 in East 0.7 mph 13.0 mph 94% 0.00 in WeatherDisplay:10.37 W/m2 OVC
02:56 66.9 °F 65.1 °F 30.00 in NNE 3.6 mph 13.0 mph 94% 0.00 in WeatherDisplay:10.37 W/m2 OVC
03:01 67.0 °F 65.5 °F 30.00 in East 2.0 mph 13.0 mph 95% 0.00 in WeatherDisplay:10.37 W/m2 OVC
03:06 67.0 °F 65.5 °F 30.00 in NE 2.8 mph 13.0 mph 95% 0.00 in WeatherDisplay:10.37 W/m2 OVC
03:11 67.0 °F 65.5 °F 30.00 in NNE 2.1 mph 13.0 mph 95% 0.00 in WeatherDisplay:10.37 W/m2 OVC
03:16 67.1 °F 65.3 °F 30.00 in NNE 0.7 mph 13.0 mph 94% 0.00 in WeatherDisplay:10.37 W/m2 OVC
03:21 67.1 °F 65.3 °F 30.00 in NE 3.3 mph 13.0 mph 94% 0.00 in WeatherDisplay:10.37 W/m2 OVC
03:26 67.1 °F 65.3 °F 30.00 in North 3.9 mph 13.0 mph 94% 0.00 in WeatherDisplay:10.37 W/m2 OVC
03:31 67.1 °F 65.3 °F 30.00 in NNW 2.7 mph 13.0 mph 94% 0.00 in WeatherDisplay:10.37 W/m2 OVC
03:36 67.1 °F 65.3 °F 30.00 in NNW 2.3 mph 13.0 mph 94% 0.00 in WeatherDisplay:10.37 W/m2 OVC
03:41 67.1 °F 65.3 °F 30.00 in North 1.8 mph 13.0 mph 94% 0.00 in WeatherDisplay:10.37 W/m2 OVC
03:46 67.1 °F 65.3 °F 30.00 in NE 2.5 mph 13.0 mph 94% 0.00 in WeatherDisplay:10.37 W/m2 OVC
03:51 67.2 °F 65.4 °F 30.00 in NNE 2.2 mph 13.0 mph 94% 0.00 in WeatherDisplay:10.37 W/m2 OVC
03:56 67.2 °F 65.4 °F 30.00 in North 2.7 mph 13.0 mph 94% 0.00 in WeatherDisplay:10.37 W/m2 OVC
04:01 67.2 °F 65.4 °F 30.00 in North 4.0 mph 13.0 mph 94% 0.00 in WeatherDisplay:10.37 W/m2 OVC
04:06 67.2 °F 65.4 °F 30.00 in NNE 5.2 mph 13.0 mph 94% 0.00 in WeatherDisplay:10.37 W/m2 OVC
04:11 67.2 °F 65.4 °F 29.99 in NNW 3.0 mph 13.0 mph 94% 0.00 in WeatherDisplay:10.37 W/m2 OVC
04:16 67.2 °F 65.4 °F 29.99 in NE 4.9 mph 13.0 mph 94% 0.00 in WeatherDisplay:10.37 W/m2 OVC
04:21 67.2 °F 65.4 °F 29.99 in NE 4.1 mph 13.0 mph 94% 0.00 in WeatherDisplay:10.37 W/m2 OVC
04:26 67.2 °F 65.4 °F 29.99 in NW 3.9 mph 13.0 mph 94% 0.00 in WeatherDisplay:10.37 W/m2 OVC
04:31 67.2 °F 65.4 °F 29.99 in NE 5.0 mph 13.0 mph 94% 0.00 in WeatherDisplay:10.37 W/m2 OVC
04:36 67.2 °F 65.4 °F 29.98 in NE 2.0 mph 13.0 mph 94% 0.00 in WeatherDisplay:10.37 W/m2 OVC
04:41 67.2 °F 65.4 °F 29.98 in NNE 2.8 mph 13.0 mph 94% 0.00 in WeatherDisplay:10.37 W/m2 OVC
04:46 67.2 °F 65.4 °F 29.98 in NNW 3.5 mph 13.0 mph 94% 0.00 in WeatherDisplay:10.37 W/m2 OVC
04:51 67.2 °F 65.4 °F 29.98 in NNW 2.7 mph 13.0 mph 94% 0.00 in WeatherDisplay:10.37 W/m2 OVC
04:56 67.2 °F 65.4 °F 29.98 in NNE 2.3 mph 13.0 mph 94% 0.00 in WeatherDisplay:10.37 W/m2 OVC
05:01 67.2 °F 65.4 °F 29.98 in NW 4.4 mph 13.0 mph 94% 0.00 in WeatherDisplay:10.37 W/m2 OVC
05:06 67.2 °F 65.4 °F 29.98 in NNE 4.5 mph 13.0 mph 94% 0.00 in WeatherDisplay:10.37 W/m2 OVC
05:11 67.2 °F 65.4 °F 29.98 in NNW 5.9 mph 13.0 mph 94% 0.00 in WeatherDisplay:10.37 W/m2 OVC
05:16 67.2 °F 65.4 °F 29.98 in NNE 4.7 mph 13.0 mph 94% 0.00 in WeatherDisplay:10.37 W/m2 OVC
05:21 67.2 °F 65.4 °F 29.98 in NE 3.3 mph 13.0 mph 94% 0.00 in WeatherDisplay:10.37 W/m2 OVC
05:26 67.3 °F 65.5 °F 29.98 in NNE 3.5 mph 13.0 mph 94% 0.00 in WeatherDisplay:10.37 W/m2 OVC
05:27 67.3 °F 65.5 °F 29.98 in NE 5.8 mph 13.0 mph 94% 0.00 in WeatherDisplay:10.37 W/m2 OVC
05:32 67.3 °F 65.5 °F 29.98 in North 2.4 mph 13.0 mph 94% 0.00 in WeatherDisplay:10.37 W/m2 OVC
05:37 67.4 °F 65.6 °F 29.98 in NE 3.6 mph 13.0 mph 94% 0.00 in WeatherDisplay:10.37 W/m2 OVC
05:42 67.4 °F 65.6 °F 29.98 in NNE 1.8 mph 13.0 mph 94% 0.00 in WeatherDisplay:10.37 W/m2 OVC
05:47 67.4 °F 65.9 °F 29.98 in ENE 1.6 mph 13.0 mph 95% 0.00 in WeatherDisplay:10.37 W/m2 OVC
05:52 67.4 °F 65.9 °F 29.98 in East 3.1 mph 13.0 mph 95% 0.00 in WeatherDisplay:10.37 W/m2 OVC
05:57 67.5 °F 66.0 °F 29.98 in North 2.7 mph 13.0 mph 95% 0.00 in WeatherDisplay:10.37 W/m2 OVC
06:02 67.5 °F 66.0 °F 29.98 in North 2.5 mph 13.0 mph 95% 0.00 in WeatherDisplay:10.37 W/m2 OVC
06:07 67.5 °F 66.0 °F 29.98 in NNE 4.1 mph 13.0 mph 95% 0.00 in WeatherDisplay:10.37 W/m2 OVC
06:12 67.5 °F 65.7 °F 29.98 in NNE 3.6 mph 13.0 mph 94% 0.00 in WeatherDisplay:10.37 W/m2 OVC
06:17 67.5 °F 65.7 °F 29.98 in NNE 4.3 mph 13.0 mph 94% 0.00 in WeatherDisplay:10.37 W/m2 OVC
06:22 67.6 °F 65.8 °F 29.99 in North 3.1 mph 13.0 mph 94% 0.00 in WeatherDisplay:10.37 W/m2 OVC
06:27 67.6 °F 65.8 °F 29.99 in NNW 3.1 mph 13.0 mph 94% 0.00 in WeatherDisplay:10.37 W/m2 OVC
06:32 67.6 °F 65.8 °F 29.99 in NNE 4.0 mph 13.0 mph 94% 0.00 in WeatherDisplay:10.37 W/m2 OVC
06:37 67.6 °F 65.8 °F 29.98 in NE 3.8 mph 13.0 mph 94% 0.00 in WeatherDisplay:10.37 W/m2 OVC
06:42 67.6 °F 65.8 °F 29.99 in NNW 2.8 mph 13.0 mph 94% 0.00 in WeatherDisplay:10.37 W/m2 OVC
06:44 67.6 °F 65.8 °F 29.99 in NNE 1.8 mph 13.0 mph 94% 0.00 in WeatherDisplay:10.37 W/m2 OVC
06:49 67.6 °F 65.8 °F 29.99 in NNW 3.5 mph 13.0 mph 94% 0.00 in WeatherDisplay:10.37 W/m2 OVC
06:54 67.6 °F 65.8 °F 29.99 in NNE 5.2 mph 13.0 mph 94% 0.00 in WeatherDisplay:10.37 W/m2 OVC
06:59 67.6 °F 65.8 °F 29.99 in North 4.4 mph 13.0 mph 94% 0.00 in WeatherDisplay:10.37 W/m2 OVC
07:04 67.6 °F 65.8 °F 29.98 in North 2.2 mph 13.0 mph 94% 0.00 in WeatherDisplay:10.37 W/m2 OVC
07:09 67.6 °F 65.8 °F 29.99 in ENE 1.9 mph 13.0 mph 94% 0.00 in WeatherDisplay:10.37 W/m2 OVC
07:14 67.6 °F 66.1 °F 29.99 in North 4.8 mph 13.0 mph 95% 0.00 in WeatherDisplay:10.37 W/m2 OVC
07:19 67.7 °F 66.2 °F 29.99 in ENE 1.9 mph 13.0 mph 95% 0.00 in WeatherDisplay:10.37 W/m2 OVC
07:24 67.7 °F 66.2 °F 29.99 in ENE 3.4 mph 13.0 mph 95% 0.00 in WeatherDisplay:10.37 W/m2 OVC
07:29 67.8 °F 66.3 °F 29.99 in NE 2.4 mph 13.0 mph 95% 0.00 in WeatherDisplay:10.37 W/m2 OVC
07:34 67.9 °F 66.1 °F 29.99 in NNE 3.5 mph 13.0 mph 94% 0.00 in WeatherDisplay:10.37 W/m2 OVC
07:39 67.9 °F 66.1 °F 29.99 in NE 4.7 mph 13.0 mph 94% 0.00 in WeatherDisplay:10.37 W/m2 OVC
07:44 68.0 °F 66.2 °F 29.99 in East 3.7 mph 13.0 mph 94% 0.00 in WeatherDisplay:10.37 W/m2 OVC
07:49 68.1 °F 66.3 °F 29.99 in NE 4.0 mph 13.0 mph 94% 0.00 in WeatherDisplay:10.37 W/m2 OVC
07:54 68.1 °F 66.3 °F 29.99 in North 5.6 mph 13.0 mph 94% 0.00 in WeatherDisplay:10.37 W/m2 OVC
07:59 68.2 °F 66.4 °F 29.99 in North 2.3 mph 13.0 mph 94% 0.00 in WeatherDisplay:10.37 W/m2 OVC
08:04 68.3 °F 66.5 °F 29.99 in ENE 5.1 mph 13.0 mph 94% 0.00 in WeatherDisplay:10.37 W/m2 OVC
08:09 68.4 °F 66.6 °F 29.99 in ENE 4.2 mph 13.0 mph 94% 0.00 in WeatherDisplay:10.37 W/m2 OVC
08:14 68.5 °F 66.4 °F 29.99 in North 3.0 mph 13.0 mph 93% 0.00 in WeatherDisplay:10.37 W/m2 OVC
08:19 68.5 °F 66.4 °F 29.99 in ENE 2.9 mph 13.0 mph 93% 0.00 in WeatherDisplay:10.37 W/m2 OVC
08:24 68.5 °F 66.4 °F 29.99 in NNE 1.7 mph 13.0 mph 93% 0.00 in WeatherDisplay:10.37 W/m2 OVC
08:29 68.6 °F 66.5 °F 29.99 in ENE 1.3 mph 13.0 mph 93% 0.00 in WeatherDisplay:10.37 W/m2 OVC
08:34 68.6 °F 66.5 °F 29.98 in NE 3.0 mph 13.0 mph 93% 0.00 in WeatherDisplay:10.37 W/m2 OVC
08:39 68.6 °F 66.5 °F 29.98 in NNE 7.5 mph 13.0 mph 93% 0.00 in WeatherDisplay:10.37 W/m2 OVC
08:44 68.7 °F 66.6 °F 29.98 in North 6.1 mph 13.0 mph 93% 0.00 in WeatherDisplay:10.37 W/m2 OVC
08:49 68.7 °F 66.6 °F 29.98 in NNW 4.1 mph 13.0 mph 93% 0.00 in WeatherDisplay:10.37 W/m2 OVC
08:54 68.8 °F 66.7 °F 29.98 in ENE 1.5 mph 13.0 mph 93% 0.00 in WeatherDisplay:10.37 W/m2 OVC
08:59 68.8 °F 66.7 °F 29.98 in NE 2.0 mph 13.0 mph 93% 0.00 in WeatherDisplay:10.37 W/m2 OVC
09:04 68.8 °F 66.7 °F 29.98 in NNE 3.5 mph 13.0 mph 93% 0.00 in WeatherDisplay:10.37 W/m2 OVC
09:05 68.8 °F 66.7 °F 29.98 in NNE 3.5 mph 13.0 mph 93% 0.00 in WeatherDisplay:10.37 W/m2 OVC
09:10 68.9 °F 66.8 °F 29.98 in North 4.5 mph 13.0 mph 93% 0.00 in WeatherDisplay:10.37 W/m2 OVC
09:15 68.9 °F 66.8 °F 29.98 in North 4.1 mph 13.0 mph 93% 0.00 in WeatherDisplay:10.37 W/m2 OVC
09:20 69.0 °F 66.6 °F 29.98 in ENE 4.8 mph 13.0 mph 92% 0.00 in WeatherDisplay:10.37 W/m2 OVC
09:25 69.0 °F 66.6 °F 29.99 in ENE 1.2 mph 13.0 mph 92% 0.00 in WeatherDisplay:10.37 W/m2 OVC
East Vincent, PA, USA
Compliments of Weather Underground - 2.75 mb